OK6FS-6 Weather Reports


time (UTC)temp
C
wind
direction
speed
KPH
gust
KPH
rain 1hr
cm
rain 24hr
cm
rain mn
cm
humidity
%
barometer
mb
20260505223028 18 16 1.6 3.2 0.00 0.00 0.00 55 1007.7
20260505221916 18 21 0.0 3.2 0.00 0.00 0.00 55 1007.7
20260505220633 18 294 1.6 4.8 0.00 0.00 0.00 55 1007.7
20260505215440 18 170 3.2 6.4 0.00 0.00 0.00 54 1007.7
20260505214236 18 349 1.6 6.4 0.00 0.00 0.00 54 1007.5
20260505213043 18 63 3.2 6.4 0.00 0.00 0.00 55 1007.4
20260505211831 18 62 3.2 6.4 0.00 0.00 0.00 54 1007.3
20260505210637 18 351 3.2 8.0 0.00 0.00 0.00 54 1007.3
20260505205444 18 66 4.8 9.7 0.00 0.00 0.00 54 1007.2
20260505204246 18 82 4.8 6.4 0.00 0.00 0.00 54 1007.2
20260505203027 18 64 6.4 9.7 0.00 0.00 0.00 53 1007.1
20260505201834 18 177 4.8 8.0 0.00 0.00 0.00 52 1007.1
20260505200631 19 79 3.2 6.4 0.00 0.00 0.00 51 1007.0
20260505195438 19 61 4.8 8.0 0.00 0.00 0.00 51 1007.1
20260505194243 20 50 3.2 8.0 0.00 0.00 0.00 50 1007.1
20260505193029 20 53 4.8 8.0 0.00 0.00 0.00 50 1007.0
20260505191836 20 80 6.4 14.5 0.00 0.00 0.00 50 1007.0
20260505190624 20 95 4.8 11.3 0.00 0.00 0.00 49 1006.9
20260505185431 20 72 6.4 16.1 0.00 0.00 0.00 49 1006.9
20260505184229 20 99 4.8 8.0 0.00 0.00 0.00 48 1006.8
20260505183036 21 65 6.4 11.3 0.00 0.00 0.00 47 1006.8
20260505181843 21 67 6.4 9.7 0.00 0.00 0.00 47 1006.7
20260505180621 21 110 4.8 9.7 0.00 0.00 0.00 47 1006.6
20260505175438 21 120 8.0 12.9 0.00 0.00 0.00 46 1006.6
20260505174235 22 114 8.0 12.9 0.00 0.00 0.00 45 1006.5
20260505173043 22 135 6.4 9.7 0.00 0.00 0.00 44 1006.6
20260505171830 22 319 8.0 17.7 0.00 0.00 0.00 43 1006.5
20260505170638 23 190 12.9 19.3 0.00 0.00 0.00 42 1006.6
20260505165435 23 191 11.3 20.9 0.00 0.00 0.00 42 1006.7
20260505164232 23 172 9.7 16.1 0.00 0.00 0.00 41 1006.7
20260505163040 24 149 9.7 16.1 0.00 0.00 0.00 39 1006.6
20260505161827 25 211 8.0 11.3 0.00 0.00 0.00 39 1006.6
20260505160634 25 172 8.0 14.5 0.00 0.00 0.00 37 1006.5
20260505153037 27 155 8.0 14.5 0.00 0.00 0.00 35 1006.6
20260505151834 27 28 8.0 20.9 0.00 0.00 0.00 33 1006.7
20260505150651 27 148 9.7 16.1 0.00 0.00 0.00 32 1006.8
20260505140626 27 130 8.0 14.5 0.00 0.00 0.00 29 1007.7
20260505124231 27 25 6.4 11.3 0.00 0.00 0.00 32 1009.0
20260505123039 27 160 6.4 8.0 0.00 0.00 0.00 33 1009.2
20260505121826 27 198 9.7 16.1 0.00 0.00 0.00 32 1009.4
20260505120632 27 116 6.4 9.7 0.00 0.00 0.00 33 1009.5
20260505115440 26 130 6.4 9.7 0.00 0.00 0.00 35 1009.6
20260505114227 26 111 6.4 11.3 0.00 0.00 0.00 37 1009.8
20260505113034 26 12 4.8 8.0 0.00 0.00 0.00 38 1010.0
20260505111842 25 151 4.8 11.3 0.00 0.00 0.00 36 1010.2
20260505110629 25 175 8.0 12.9 0.00 0.00 0.00 37 1010.4
20260505101829 24 199 4.8 9.7 0.00 0.00 0.00 39 1010.9
20260505100636 24 213 6.4 14.5 0.00 0.00 0.00 38 1011.0
20260505095433 25 153 6.4 8.0 0.00 0.00 0.00 34 1011.1
20260505094242 26 93 4.8 8.0 0.00 0.00 0.00 33 1011.2
20260505093028 26 69 4.8 6.4 0.00 0.00 0.00 34 1011.3
20260505091826 25 131 6.4 9.7 0.00 0.00 0.00 33 1011.4
20260505090633 25 193 4.8 8.0 0.00 0.00 0.00 33 1011.6
20260505085431 24 42 3.2 3.2 0.00 0.00 0.00 35 1011.6
20260505084228 22 185 4.8 8.0 0.00 0.00 0.00 37 1011.9
20260505083046 23 73 4.8 11.3 0.00 0.00 0.00 37 1011.8
20260505081832 22 14 4.8 6.4 0.00 0.00 0.00 36 1011.9
20260505080640 23 27 6.4 6.4 0.00 0.00 0.00 34 1012.1
20260505075457 23 170 3.2 4.8 0.00 0.00 0.00 37 1012.1
20260505074245 22 181 3.2 6.4 0.00 0.00 0.00 39 1012.2
20260505073022 23 155 3.2 6.4 0.00 0.00 0.00 39 1012.3
20260505071826 23 41 4.8 6.4 0.00 0.00 0.00 40 1012.1
20260505070633 21 9 1.6 3.2 0.00 0.00 0.00 42 1012.2
20260505065440 21 33 4.8 6.4 0.00 0.00 0.00 41 1012.3
20260505064227 20 178 4.8 9.7 0.00 0.00 0.00 42 1012.3
20260505063024 18 237 4.8 6.4 0.00 0.00 0.00 47 1012.3
20260505061842 17 34 4.8 6.4 0.00 0.00 0.00 49 1012.4
20260505060628 17 140 3.2 6.4 0.00 0.00 0.00 49 1012.5
20260505055435 16 252 1.6 3.2 0.00 0.00 0.00 50 1012.5
20260505054223 16 17 1.6 1.6 0.00 0.00 0.00 50 1012.4
20260505053030 15 9 0.0 0.0 0.00 0.00 0.00 53 1012.3
20260505051847 15 17 1.6 3.2 0.00 0.00 0.00 53 1012.2
20260505050644 14 0.0 0.0 0.00 0.00 0.00 55 1012.1
20260505040640 12 0.0 0.0 0.00 0.00 0.00 59 1012.0
20260505035437 12 0.0 0.0 0.00 0.00 0.00 58 1012.1
20260505034305 12 0.0 0.0 0.00 0.00 0.00 57 1011.9
20260505033032 12 0.0 0.0 0.00 0.00 0.00 57 1012.0
20260505031840 12 0.0 0.0 0.00 0.00 0.00 57 1012.1
20260505030647 12 0.0 0.0 0.00 0.00 0.00 56 1012.2
20260505025434 13 0.0 0.0 0.00 0.00 0.00 55 1012.3
20260505024242 13 0.0 0.0 0.00 0.00 0.00 55 1012.3
20260505023029 13 0.0 0.0 0.00 0.00 0.00 55 1012.5
20260505021856 13 0.0 0.0 0.00 0.00 0.00 55 1012.4
20260505020644 13 27 1.6 3.2 0.00 0.00 0.00 53 1012.6
20260505015432 13 0.0 0.0 0.00 0.00 0.00 53 1012.6
20260505014240 13 298 1.6 1.6 0.00 0.00 0.00 53 1012.6
20260505013047 15 0.0 0.0 0.00 0.00 0.00 52 1012.5
20260505011854 15 338 0.0 0.0 0.00 0.00 0.00 51 1012.5
20260505010641 15 0.0 0.0 0.00 0.00 0.00 51 1012.5
20260505005428 15 0.0 0.0 0.00 0.00 0.00 49 1012.6
20260505004225 16 0.0 0.0 0.00 0.00 0.00 48 1012.6
20260505003053 16 0.0 0.0 0.00 0.00 0.00 47 1012.7
20260505001839 16 31 3.2 4.8 0.00 0.00 0.00 46 1012.8
20260505000656 17 35 3.2 3.2 0.00 0.00 0.00 46 1012.9
20260504235450 17 0.0 0.0 0.00 0.00 0.00 46 1013.0
20260504234241 17 45 0.0 0.0 0.00 0.00 0.00 46 1013.1
20260504233038 17 0.0 0.0 0.00 0.00 0.00 45 1013.2
20260504231835 17 23 1.6 3.2 0.00 0.00 0.00 45 1013.1
20260504230653 17 40 3.2 3.2 0.00 0.00 0.00 44 1013.1
20260504225441 18 33 3.2 4.8 0.00 0.00 0.00 44 1013.2
20260504224227 18 34 3.2 4.8 0.00 0.00 0.00 43 1013.3